Weather History for Spokane Fairchild, WA

Change the Weather History Date:

Monday, September 2, 2013

  Actual Average Record
Temperature  
Mean Temperature 67 °F -  
Max Temperature 80 °F 74 °F 89 °F (1998)
Min Temperature 56 °F 50 °F 39 °F (2004)
Cooling Degree Days 2    
Growing Degree Days 17 (Base 50)    
Moisture  
Dew Point 55 °F    
Average Humidity 61    
Maximum Humidity 79    
Minimum Humidity 42    
Precipitation  
Precipitation 0.02 in - - ()
Sea Level Pressure  
Sea Level Pressure 29.89 in    
Wind  
Wind Speed 5 mph (ENE)    
Max Wind Speed 12 mph    
Max Gust Speed -    
Visibility 10 miles    
Events Rain    
Averages and records for this station are not official NWS values.
T = Trace of Precipitation, MM = Missing Value Source: NWS Daily Summary

Daily Weather History Graph

Daily Weather History Graph

Search for Another Location

Airport:

Trip Planner

Search our weather history database for the weather conditions in past years. The results will help you decide how hot, cold, wet, or windy it might be!

Date:

Astronomy

Sep. 02, 2013 Rise Set
Actual Time 6:10 AM PDT 7:28 PM PDT
Civil Twilight 5:39 AM PDT 8:00 PM PDT
Nautical Twilight 5:00 AM PDT 8:38 PM PDT
Astronomical Twilight 4:19 AM PDT 9:19 PM PDT
Moon 3:25 AM PDT (9/2) 5:49 PM PDT (9/2)
Length of Visible Light 14h 21m
Length of Day
13h 17m
Waning Crescent, 7% of the Moon is Illuminated
Sep 2
Waning Crescent
Sep 5
New
Sep 12
First Quarter
Sep 19
Full
Sep 26
Last Quarter

Hourly Weather History & Observations

Time (PDT) Temp. Dew Point Humidity Pressure Visibility Wind Dir Wind Speed Gust Speed Precip Events Conditions
12:58 AM 66.4 °F 46.8 °F 49% 29.81 in 10.0 mi Calm Calm - N/A   Overcast
1:58 AM 63.0 °F 45.9 °F 54% 29.80 in 10.0 mi NNW 3.5 mph - N/A   Partly Cloudy
2:58 AM 59.0 °F 45.9 °F 62% 29.79 in 10.0 mi NNW 1.2 mph - N/A   Partly Cloudy
3:58 AM 56.1 °F 44.1 °F 64% 29.79 in 10.0 mi North 1.2 mph - N/A   Mostly Cloudy
4:58 AM 61.9 °F 46.2 °F 56% 29.81 in 10.0 mi WSW 2.3 mph - N/A   Overcast
5:07 AM 64.4 °F 48.2 °F 56% 29.84 in 10.0 mi NE 5.8 mph - N/A Rain Light Rain
5:45 AM 62.6 °F 51.8 °F 68% 29.85 in 10.0 mi Variable 1.2 mph - N/A   Overcast
5:51 AM 64.4 °F 50.0 °F 59% 29.86 in 10.0 mi NE 3.5 mph - N/A Rain Light Rain
5:58 AM 65.1 °F 52.2 °F 63% 29.83 in 10.0 mi SE 11.5 mph - 0.00 in Rain Light Rain
6:54 AM 62.6 °F 53.6 °F 72% 29.89 in 10.0 mi Variable 3.5 mph - N/A   Overcast
6:58 AM 62.6 °F 55.4 °F 77% 29.86 in 10.0 mi Variable 2.3 mph - 0.01 in   Overcast
6:59 AM 62.6 °F 53.6 °F 72% 29.91 in 10.0 mi SSE 4.6 mph - N/A Rain Light Rain
7:46 AM 62.6 °F 55.4 °F 77% 29.90 in 10.0 mi NE 6.9 mph - N/A   Overcast
7:58 AM 63.1 °F 56.1 °F 78% 29.86 in 10.0 mi NE 9.2 mph - 0.01 in   Overcast
8:49 AM 64.4 °F 55.4 °F 73% 29.92 in 10.0 mi ENE 4.6 mph - N/A Rain Light Rain
8:56 AM 66.2 °F 55.4 °F 68% 29.92 in 10.0 mi Variable 4.6 mph - N/A   Overcast
8:58 AM 65.3 °F 54.9 °F 69% 29.89 in 10.0 mi SE 5.8 mph - 0.00 in   Overcast
9:58 AM 67.3 °F 54.9 °F 64% 29.89 in 10.0 mi NNE 6.9 mph - N/A   Mostly Cloudy
10:58 AM 69.4 °F 55.6 °F 61% 29.90 in 10.0 mi NE 5.8 mph - N/A   Mostly Cloudy
11:13 AM 71.6 °F 55.4 °F 57% 29.93 in 10.0 mi Variable 4.6 mph - N/A Rain Light Rain
11:18 AM 71.6 °F 55.4 °F 57% 29.93 in 10.0 mi Variable 2.3 mph - N/A   Mostly Cloudy
11:19 AM 71.6 °F 55.4 °F 57% 29.93 in 10.0 mi ENE 3.5 mph - N/A   Light Drizzle
11:23 AM 71.6 °F 55.4 °F 57% 29.93 in 10.0 mi NNE 5.8 mph - N/A   Mostly Cloudy
11:26 AM 71.6 °F 57.2 °F 60% 29.93 in 10.0 mi Variable 5.8 mph - N/A Rain Light Rain
11:29 AM 73.4 °F 57.2 °F 57% 29.93 in 10.0 mi NE 6.9 mph - N/A   Mostly Cloudy
11:44 AM 73.4 °F 55.4 °F 53% 29.93 in 10.0 mi Variable 2.3 mph - N/A   Light Drizzle
11:58 AM 75.0 °F 55.6 °F 51% 29.90 in 10.0 mi ESE 4.6 mph - 0.00 in   Light Drizzle
12:06 PM 75.2 °F 55.4 °F 50% 29.93 in 10.0 mi Variable 4.6 mph - N/A   Scattered Clouds
12:08 PM 77.0 °F 55.4 °F 47% 29.93 in 10.0 mi Variable 5.8 mph - N/A   Light Drizzle
12:20 PM 78.8 °F 55.4 °F 44% 29.93 in 10.0 mi SE 2.3 mph - N/A   Partly Cloudy
12:23 PM 78.8 °F 55.4 °F 44% 29.93 in 10.0 mi Variable 5.8 mph - N/A   Light Drizzle
12:55 PM 78.8 °F 57.2 °F 47% 29.93 in 10.0 mi ESE 10.4 mph - N/A   Overcast
12:58 PM 78.3 °F 56.5 °F 47% 29.89 in 10.0 mi SE 9.2 mph - 0.00 in   Overcast
1:58 PM 78.6 °F 54.5 °F 43% 29.90 in 10.0 mi SE 9.2 mph - N/A   Mostly Cloudy
2:58 PM 78.8 °F 54.1 °F 42% 29.90 in 10.0 mi ESE 9.2 mph - N/A   Mostly Cloudy
3:39 PM 77.0 °F 55.4 °F 47% 29.94 in 10.0 mi ESE 8.1 mph - N/A Rain Light Rain
3:52 PM 75.2 °F 55.4 °F 50% 29.94 in 10.0 mi ESE 11.5 mph - N/A   Scattered Clouds
3:58 PM 75.2 °F 56.3 °F 52% 29.91 in 10.0 mi ESE 11.5 mph - 0.00 in   Scattered Clouds
4:58 PM 73.9 °F 57.2 °F 56% 29.90 in 10.0 mi ESE 6.9 mph - N/A   Scattered Clouds
5:58 PM 72.9 °F 58.6 °F 61% 29.90 in 10.0 mi ENE 8.1 mph - N/A   Clear
6:58 PM 69.8 °F 59.0 °F 68% 29.90 in 10.0 mi ENE 6.9 mph - N/A   Clear
7:31 PM 66.2 °F 59.0 °F 78% 29.92 in 10.0 mi ENE 6.9 mph - N/A   Light Drizzle
7:38 PM 66.2 °F 59.0 °F 78% 29.93 in 10.0 mi NE 5.8 mph - N/A   Clear
7:58 PM 66.4 °F 58.3 °F 75% 29.90 in 10.0 mi NE 6.9 mph - 0.00 in   Clear
8:58 PM 65.1 °F 58.5 °F 79% 29.92 in 10.0 mi NE 8.1 mph - N/A   Clear
9:58 PM 66.0 °F 58.5 °F 77% 29.90 in 10.0 mi NE 10.4 mph - N/A   Clear
10:58 PM 65.5 °F 57.4 °F 75% 29.91 in 10.0 mi NNE 9.2 mph - N/A   Clear
11:58 PM 63.7 °F 57.2 °F 79% 29.92 in 10.0 mi NE 8.1 mph - N/A   Clear